Time,TemperatureF,DewpointF,PressureIn,WindDirection,WindDirectionDegrees,WindSpeedMPH,WindSpeedGustMPH,Humidity,HourlyPrecipIn,Conditions,Clouds,dailyrainin,SoftwareType,DateUTC
2013-09-04 00:01:00,72.0,69.2,30.26,ENE,59,3.5,3.5,91,0.00,CLR,,0.00,WeatherDisplay:10.37,2013-09-03 22:01:00,
2013-09-04 00:06:00,71.9,69.1,30.26,NE,54,3.5,3.5,91,0.00,CLR,,0.00,WeatherDisplay:10.37,2013-09-03 22:06:00,
2013-09-04 00:11:00,71.8,69.0,30.27,ENE,57,3.5,3.5,91,0.00,CLR,,0.00,WeatherDisplay:10.37,2013-09-03 22:11:00,
2013-09-04 00:16:00,71.7,68.9,30.26,ENE,57,3.5,3.5,91,0.00,CLR,,0.00,WeatherDisplay:10.37,2013-09-03 22:16:00,
2013-09-04 00:21:00,71.6,68.8,30.27,ENE,63,3.5,3.5,91,0.00,CLR,,0.00,WeatherDisplay:10.37,2013-09-03 22:21:00,
2013-09-04 00:26:00,71.5,68.7,30.27,NE,54,3.5,3.5,91,0.00,CLR,,0.00,WeatherDisplay:10.37,2013-09-03 22:26:00,
2013-09-04 00:31:00,71.4,68.6,30.27,ENE,70,3.5,3.5,91,0.00,CLR,,0.00,WeatherDisplay:10.37,2013-09-03 22:31:00,
2013-09-04 00:36:00,71.3,68.5,30.26,NE,55,3.5,3.5,91,0.00,CLR,,0.00,WeatherDisplay:10.37,2013-09-03 22:36:00,
2013-09-04 00:41:00,71.2,68.8,30.26,NE,49,3.5,3.5,92,0.00,CLR,,0.00,WeatherDisplay:10.37,2013-09-03 22:41:00,
2013-09-04 00:46:00,71.1,68.7,30.26,East,80,3.5,3.5,92,0.00,CLR,,0.00,WeatherDisplay:10.37,2013-09-03 22:46:00,
2013-09-04 00:51:00,71.0,68.6,30.26,ENE,61,3.5,3.5,92,0.00,CLR,,0.00,WeatherDisplay:10.37,2013-09-03 22:51:00,
2013-09-04 00:56:00,71.0,68.6,30.26,NE,54,2.3,2.3,92,0.00,CLR,,0.00,WeatherDisplay:10.37,2013-09-03 22:56:00,
2013-09-04 01:01:00,71.0,68.6,30.26,NE,53,3.5,3.5,92,0.00,CLR,,0.00,WeatherDisplay:10.37,2013-09-03 23:01:00,
2013-09-04 01:06:00,71.0,68.6,30.26,NE,51,3.5,3.5,92,0.00,CLR,,0.00,WeatherDisplay:10.37,2013-09-03 23:06:00,
2013-09-04 01:11:00,70.9,68.5,30.26,ENE,63,1.2,1.2,92,0.00,CLR,,0.00,WeatherDisplay:10.37,2013-09-03 23:11:00,
2013-09-04 01:16:00,70.8,68.7,30.26,ENE,58,3.5,3.5,93,0.00,CLR,,0.00,WeatherDisplay:10.37,2013-09-03 23:16:00,
2013-09-04 01:21:00,70.8,68.7,30.26,ENE,57,3.5,3.5,93,0.00,CLR,,0.00,WeatherDisplay:10.37,2013-09-03 23:21:00,
2013-09-04 01:26:00,70.8,68.7,30.26,ENE,57,2.3,2.3,93,0.00,CLR,,0.00,WeatherDisplay:10.37,2013-09-03 23:26:00,
2013-09-04 01:31:00,70.8,68.7,30.25,ENE,57,2.3,2.3,93,0.00,CLR,,0.00,WeatherDisplay:10.37,2013-09-03 23:31:00,
2013-09-04 01:36:00,70.8,68.7,30.25,ENE,57,3.5,3.5,93,0.00,CLR,,0.00,WeatherDisplay:10.37,2013-09-03 23:36:00,
2013-09-04 01:41:00,70.5,68.4,30.25,NE,48,2.3,2.3,93,0.00,CLR,,0.00,WeatherDisplay:10.37,2013-09-03 23:41:00,
2013-09-04 01:46:00,70.2,68.4,30.25,NE,48,2.3,2.3,94,0.00,CLR,,0.00,WeatherDisplay:10.37,2013-09-03 23:46:00,
2013-09-04 01:51:00,69.9,68.1,30.25,NE,48,2.3,2.3,94,0.00,CLR,,0.00,WeatherDisplay:10.37,2013-09-03 23:51:00,
2013-09-04 01:56:00,69.9,68.4,30.25,NE,48,2.3,2.3,95,0.00,CLR,,0.00,WeatherDisplay:10.37,2013-09-03 23:56:00,
2013-09-04 02:01:00,70.0,68.5,30.25,NE,43,3.5,3.5,95,0.00,CLR,,0.00,WeatherDisplay:10.37,2013-09-04 00:01:00,
2013-09-04 02:06:00,70.1,68.3,30.25,NE,43,3.5,3.5,94,0.00,CLR,,0.00,WeatherDisplay:10.37,2013-09-04 00:06:00,
2013-09-04 02:11:00,70.2,68.4,30.24,NE,35,3.5,3.5,94,0.00,CLR,,0.00,WeatherDisplay:10.37,2013-09-04 00:11:00,
2013-09-04 02:16:00,70.2,68.4,30.24,NE,36,3.5,3.5,94,0.00,CLR,,0.00,WeatherDisplay:10.37,2013-09-04 00:16:00,
2013-09-04 02:21:00,70.1,68.3,30.24,NNE,32,3.5,3.5,94,0.00,CLR,,0.00,WeatherDisplay:10.37,2013-09-04 00:21:00,
2013-09-04 02:26:00,69.9,68.1,30.24,NNE,32,2.3,2.3,94,0.00,CLR,,0.00,WeatherDisplay:10.37,2013-09-04 00:26:00,
2013-09-04 02:31:00,69.7,68.2,30.24,NNE,27,2.3,2.3,95,0.00,CLR,,0.00,WeatherDisplay:10.37,2013-09-04 00:31:00,
2013-09-04 02:36:00,69.6,68.4,30.24,NW,309,3.5,3.5,96,0.00,CLR,,0.00,WeatherDisplay:10.37,2013-09-04 00:36:00,
2013-09-04 02:41:00,69.7,68.5,30.24,NW,312,3.5,3.5,96,0.00,CLR,,0.00,WeatherDisplay:10.37,2013-09-04 00:41:00,
2013-09-04 02:46:00,69.7,68.5,30.24,NW,316,2.3,2.3,96,0.00,CLR,,0.00,WeatherDisplay:10.37,2013-09-04 00:46:00,
2013-09-04 02:51:00,69.9,68.7,30.24,NNW,331,2.3,2.3,96,0.00,CLR,,0.00,WeatherDisplay:10.37,2013-09-04 00:51:00,
2013-09-04 02:56:00,69.9,68.4,30.24,NW,319,2.0,2.0,95,0.00,CLR,,0.00,WeatherDisplay:10.37,2013-09-04 00:56:00,
2013-09-04 03:01:00,70.0,68.5,30.24,NW,318,2.3,2.3,95,0.00,CLR,,0.00,WeatherDisplay:10.37,2013-09-04 01:01:00,
2013-09-04 03:06:00,70.1,68.6,30.24,NW,319,2.3,2.3,95,0.00,CLR,,0.00,WeatherDisplay:10.37,2013-09-04 01:06:00,
2013-09-04 03:11:00,70.3,68.8,30.24,North,350,2.3,2.3,95,0.00,CLR,,0.00,WeatherDisplay:10.37,2013-09-04 01:11:00,
2013-09-04 03:16:00,70.4,68.6,30.24,North,5,2.3,2.3,94,0.00,CLR,,0.00,WeatherDisplay:10.37,2013-09-04 01:16:00,
2013-09-04 03:21:00,70.4,68.6,30.24,North,9,2.3,2.3,94,0.00,CLR,,0.00,WeatherDisplay:10.37,2013-09-04 01:21:00,
2013-09-04 03:26:00,70.4,68.6,30.24,North,5,1.2,1.2,94,0.00,CLR,,0.00,WeatherDisplay:10.37,2013-09-04 01:26:00,
2013-09-04 03:31:00,70.1,68.3,30.24,WNW,299,2.3,2.3,94,0.00,CLR,,0.00,WeatherDisplay:10.37,2013-09-04 01:31:00,
2013-09-04 03:36:00,69.5,68.0,30.24,WNW,298,3.5,3.5,95,0.00,CLR,,0.00,WeatherDisplay:10.37,2013-09-04 01:36:00,
2013-09-04 03:41:00,69.1,67.9,30.24,WNW,298,3.5,3.5,96,0.00,CLR,,0.00,WeatherDisplay:10.37,2013-09-04 01:41:00,
2013-09-04 03:46:00,68.8,67.9,30.24,WNW,292,3.5,3.5,97,0.00,CLR,,0.00,WeatherDisplay:10.37,2013-09-04 01:46:00,
2013-09-04 03:51:00,68.4,67.8,30.24,WNW,294,3.5,3.5,98,0.00,CLR,,0.00,WeatherDisplay:10.37,2013-09-04 01:51:00,
2013-09-04 03:56:00,68.3,67.7,30.24,NW,317,3.5,3.5,98,0.00,CLR,,0.00,WeatherDisplay:10.37,2013-09-04 01:56:00,
2013-09-04 04:01:00,68.3,67.7,30.24,NNW,331,2.3,2.3,98,0.00,CLR,,0.00,WeatherDisplay:10.37,2013-09-04 02:01:00,
2013-09-04 04:06:00,68.3,67.7,30.24,NNW,331,2.3,2.3,98,0.00,CLR,,0.00,WeatherDisplay:10.37,2013-09-04 02:06:00,
2013-09-04 04:11:00,68.2,67.6,30.24,NNW,330,3.5,3.5,98,0.00,CLR,,0.00,WeatherDisplay:10.37,2013-09-04 02:11:00,
2013-09-04 04:16:00,68.2,67.6,30.23,NNW,329,2.3,2.3,98,0.00,CLR,,0.00,WeatherDisplay:10.37,2013-09-04 02:16:00,
2013-09-04 04:21:00,68.1,67.8,30.23,NNW,329,2.3,2.3,99,0.00,CLR,,0.00,WeatherDisplay:10.37,2013-09-04 02:21:00,
2013-09-04 04:26:00,68.1,67.8,30.24,NNW,329,2.3,2.3,99,0.00,CLR,,0.00,WeatherDisplay:10.37,2013-09-04 02:26:00,
2013-09-04 04:31:00,68.0,67.7,30.23,NNW,329,3.5,3.5,99,0.00,CLR,,0.00,WeatherDisplay:10.37,2013-09-04 02:31:00,
2013-09-04 04:36:00,68.0,67.7,30.23,NNW,329,2.3,2.3,99,0.00,CLR,,0.00,WeatherDisplay:10.37,2013-09-04 02:36:00,
2013-09-04 04:41:00,68.0,67.7,30.23,NNW,329,2.3,2.3,99,0.00,CLR,,0.00,WeatherDisplay:10.37,2013-09-04 02:41:00,
2013-09-04 04:46:00,68.0,67.7,30.23,NNW,329,3.5,3.5,99,0.00,CLR,,0.00,WeatherDisplay:10.37,2013-09-04 02:46:00,
2013-09-04 04:51:00,67.9,67.6,30.23,NNW,329,3.5,3.5,99,0.00,CLR,,0.00,WeatherDisplay:10.37,2013-09-04 02:51:00,
2013-09-04 04:56:00,67.9,67.6,30.23,NNW,329,2.0,2.0,99,0.00,CLR,,0.00,WeatherDisplay:10.37,2013-09-04 02:56:00,
2013-09-04 05:01:00,68.0,67.7,30.23,NNW,329,2.3,2.3,99,0.00,CLR,,0.00,WeatherDisplay:10.37,2013-09-04 03:01:00,
2013-09-04 05:06:00,68.0,67.7,30.23,NNW,329,2.3,2.3,99,0.00,CLR,,0.00,WeatherDisplay:10.37,2013-09-04 03:06:00,
2013-09-04 05:11:00,68.0,67.7,30.23,NNW,329,1.2,1.2,99,0.00,CLR,,0.00,WeatherDisplay:10.37,2013-09-04 03:11:00,
2013-09-04 05:16:00,67.9,67.6,30.23,NNW,329,2.3,2.3,99,0.00,CLR,,0.00,WeatherDisplay:10.37,2013-09-04 03:16:00,
2013-09-04 05:21:00,67.9,67.6,30.23,NNW,329,2.3,2.3,99,0.00,CLR,,0.00,WeatherDisplay:10.37,2013-09-04 03:21:00,
2013-09-04 05:26:00,67.7,67.4,30.23,NNW,329,2.3,2.3,99,0.00,CLR,,0.00,WeatherDisplay:10.37,2013-09-04 03:26:00,
2013-09-04 05:31:00,67.6,67.3,30.23,NNW,329,2.3,2.3,99,0.00,CLR,,0.00,WeatherDisplay:10.37,2013-09-04 03:31:00,
2013-09-04 05:36:00,67.6,67.3,30.23,NNW,329,2.3,2.3,99,0.00,CLR,,0.00,WeatherDisplay:10.37,2013-09-04 03:36:00,
2013-09-04 05:41:00,67.7,67.4,30.23,NNW,329,3.5,3.5,99,0.00,CLR,,0.00,WeatherDisplay:10.37,2013-09-04 03:41:00,
2013-09-04 05:46:00,67.7,67.4,30.23,NNW,329,3.5,3.5,99,0.00,CLR,,0.00,WeatherDisplay:10.37,2013-09-04 03:46:00,
2013-09-04 05:51:00,67.8,67.5,30.23,NNW,329,2.3,2.3,99,0.00,CLR,,0.00,WeatherDisplay:10.37,2013-09-04 03:51:00,
2013-09-04 05:56:00,67.7,67.4,30.23,NNW,329,1.2,1.2,99,0.00,CLR,,0.00,WeatherDisplay:10.37,2013-09-04 03:56:00,
2013-09-04 06:01:00,67.7,67.4,30.23,NNW,329,2.3,2.3,99,0.00,CLR,,0.00,WeatherDisplay:10.37,2013-09-04 04:01:00,
2013-09-04 06:03:00,67.7,67.4,30.23,NNW,329,2.3,2.3,99,0.00,CLR,,0.00,WeatherDisplay:10.37,2013-09-04 04:03:00,
2013-09-04 06:04:00,67.7,67.4,30.23,NNW,329,2.3,2.3,99,0.00,CLR,,0.00,WeatherDisplay:10.37,2013-09-04 04:04:00,
2013-09-04 06:09:00,67.7,67.4,30.23,NNW,329,1.2,1.2,99,0.00,CLR,,0.00,WeatherDisplay:10.37,2013-09-04 04:09:00,
2013-09-04 06:14:00,67.7,67.4,30.24,NNW,329,1.2,1.2,99,0.00,CLR,,0.00,WeatherDisplay:10.37,2013-09-04 04:14:00,
2013-09-04 06:19:00,67.6,67.3,30.24,NNW,329,1.2,1.2,99,0.00,CLR,,0.00,WeatherDisplay:10.37,2013-09-04 04:19:00,
2013-09-04 06:24:00,67.6,67.3,30.24,NNW,329,1.2,1.2,99,0.00,CLR,,0.00,WeatherDisplay:10.37,2013-09-04 04:24:00,
2013-09-04 06:29:00,67.6,67.3,30.24,NNW,329,0.0,0.0,99,0.00,CLR,,0.00,WeatherDisplay:10.37,2013-09-04 04:29:00,
2013-09-04 06:34:00,67.7,67.4,30.24,NNW,336,1.2,1.2,99,0.00,CLR,,0.00,WeatherDisplay:10.37,2013-09-04 04:34:00,
2013-09-04 06:39:00,67.8,67.5,30.24,NNW,337,2.3,2.3,99,0.00,CLR,,0.00,WeatherDisplay:10.37,2013-09-04 04:39:00,
2013-09-04 06:44:00,67.8,67.5,30.24,NNW,337,1.2,0.0,99,0.00,CLR,,0.00,WeatherDisplay:10.37,2013-09-04 04:44:00,
2013-09-04 06:49:00,67.8,67.5,30.24,NNW,337,0.0,0.0,99,0.00,CLR,,0.00,WeatherDisplay:10.37,2013-09-04 04:49:00,
2013-09-04 06:54:00,67.8,67.5,30.24,NNW,337,1.2,1.2,99,0.00,CLR,,0.00,WeatherDisplay:10.37,2013-09-04 04:54:00,
2013-09-04 06:59:00,67.5,67.2,30.24,NNW,337,0.0,0.0,99,0.00,CLR,,0.00,WeatherDisplay:10.37,2013-09-04 04:59:00,
2013-09-04 07:04:00,67.4,67.1,30.24,NNW,337,0.0,0.0,99,0.00,CLR,,0.00,WeatherDisplay:10.37,2013-09-04 05:04:00,
2013-09-04 07:09:00,67.4,67.1,30.24,NNW,337,1.2,1.2,99,0.00,CLR,,0.00,WeatherDisplay:10.37,2013-09-04 05:09:00,
2013-09-04 07:14:00,67.5,67.2,30.24,North,349,1.2,1.2,99,0.00,CLR,,0.00,WeatherDisplay:10.37,2013-09-04 05:14:00,
2013-09-04 07:19:00,67.7,67.4,30.24,North,355,3.5,3.5,99,0.00,CLR,,0.00,WeatherDisplay:10.37,2013-09-04 05:19:00,
2013-09-04 07:24:00,67.9,67.6,30.24,North,355,3.5,3.5,99,0.00,CLR,,0.00,WeatherDisplay:10.37,2013-09-04 05:24:00,
2013-09-04 07:29:00,68.0,67.7,30.24,North,355,2.3,2.3,99,0.00,CLR,,0.00,WeatherDisplay:10.37,2013-09-04 05:29:00,
2013-09-04 07:34:00,68.0,67.7,30.25,North,355,1.2,1.2,99,0.00,CLR,,0.00,WeatherDisplay:10.37,2013-09-04 05:34:00,
2013-09-04 07:39:00,68.0,67.7,30.25,North,355,2.3,2.3,99,0.00,CLR,,0.00,WeatherDisplay:10.37,2013-09-04 05:39:00,
2013-09-04 07:44:00,68.1,67.8,30.25,North,349,2.3,2.3,99,0.00,CLR,,0.00,WeatherDisplay:10.37,2013-09-04 05:44:00,
2013-09-04 07:49:00,68.3,68.0,30.25,NNW,346,2.3,2.3,99,0.00,CLR,,0.00,WeatherDisplay:10.37,2013-09-04 05:49:00,
2013-09-04 07:54:00,68.5,68.2,30.25,NNW,346,2.3,2.3,99,0.00,CLR,,0.00,WeatherDisplay:10.37,2013-09-04 05:54:00,
2013-09-04 07:59:00,68.7,68.4,30.25,NNW,337,3.5,3.5,99,0.00,CLR,,0.00,WeatherDisplay:10.37,2013-09-04 05:59:00,
2013-09-04 08:05:00,68.9,68.6,30.25,NNW,337,2.3,2.3,99,0.00,CLR,,0.00,WeatherDisplay:10.37,2013-09-04 06:05:00,
2013-09-04 08:10:00,69.2,68.9,30.25,NNW,337,1.2,1.2,99,0.00,CLR,,0.00,WeatherDisplay:10.37,2013-09-04 06:10:00,
2013-09-04 08:15:00,69.4,69.1,30.25,NNW,337,1.2,1.2,99,0.00,CLR,,0.00,WeatherDisplay:10.37,2013-09-04 06:15:00,
2013-09-04 08:20:00,69.6,69.3,30.25,NNW,337,0.0,0.0,99,0.00,CLR,,0.00,WeatherDisplay:10.37,2013-09-04 06:20:00,
2013-09-04 08:25:00,70.0,69.7,30.25,NNW,337,0.0,0.0,99,0.00,CLR,,0.00,WeatherDisplay:10.37,2013-09-04 06:25:00,
2013-09-04 08:30:00,70.9,70.6,30.25,NNE,19,3.5,3.5,99,0.00,CLR,,0.00,WeatherDisplay:10.37,2013-09-04 06:30:00,
2013-09-04 08:35:00,71.4,66.3,30.21,NNE,21,2.0,2.0,84,0.00,,,0.00,Wunderground v.1.15,2013-09-04 06:35:00,
2013-09-04 08:40:00,71.9,71.3,30.25,NNE,17,3.5,3.5,98,0.00,CLR,,0.00,WeatherDisplay:10.37,2013-09-04 06:40:00,
2013-09-04 08:45:00,72.2,71.6,30.25,NNE,32,3.5,3.5,98,0.00,CLR,,0.00,WeatherDisplay:10.37,2013-09-04 06:45:00,
2013-09-04 08:50:00,72.7,71.5,30.25,NE,34,4.6,4.6,96,0.00,CLR,,0.00,WeatherDisplay:10.37,2013-09-04 06:50:00,
2013-09-04 08:55:00,73.1,71.9,30.25,NNE,32,3.5,3.5,96,0.00,CLR,,0.00,WeatherDisplay:10.37,2013-09-04 06:55:00,
2013-09-04 09:00:00,73.6,71.8,30.25,ENE,62,4.6,4.6,94,0.00,CLR,,0.00,WeatherDisplay:10.37,2013-09-04 07:00:00,
2013-09-04 09:05:00,74.0,71.8,30.25,NNE,27,4.6,4.6,93,0.00,CLR,,0.00,WeatherDisplay:10.37,2013-09-04 07:05:00,
2013-09-04 09:10:00,74.0,71.8,30.25,NE,35,4.6,4.6,93,0.00,CLR,,0.00,WeatherDisplay:10.37,2013-09-04 07:10:00,
2013-09-04 09:15:00,74.4,71.9,30.25,NE,43,3.5,3.5,92,0.00,CLR,,0.00,WeatherDisplay:10.37,2013-09-04 07:15:00,
2013-09-04 09:20:00,74.7,71.9,30.25,ENE,60,4.0,4.0,91,0.00,CLR,,0.00,WeatherDisplay:10.37,2013-09-04 07:20:00,
2013-09-04 09:25:00,75.0,71.9,30.25,NE,52,4.6,4.6,90,0.00,CLR,,0.00,WeatherDisplay:10.37,2013-09-04 07:25:00,
2013-09-04 09:30:00,75.3,72.2,30.25,NE,40,3.5,3.5,90,0.00,CLR,,0.00,WeatherDisplay:10.37,2013-09-04 07:30:00,
2013-09-04 09:35:00,75.4,71.9,30.25,NNE,32,4.6,4.6,89,0.00,CLR,,0.00,WeatherDisplay:10.37,2013-09-04 07:35:00,
2013-09-04 09:40:00,75.6,72.1,30.25,NNE,26,3.5,3.5,89,0.00,CLR,,0.00,WeatherDisplay:10.37,2013-09-04 07:40:00,
2013-09-04 09:45:00,75.7,71.9,30.25,East,94,4.6,4.6,88,0.00,CLR,,0.00,WeatherDisplay:10.37,2013-09-04 07:45:00,
2013-09-04 09:50:00,75.8,72.0,30.25,NE,42,3.5,3.5,88,0.00,CLR,,0.00,WeatherDisplay:10.37,2013-09-04 07:50:00,
2013-09-04 09:55:00,76.0,71.8,30.25,NNE,32,3.5,3.5,87,0.00,CLR,,0.00,WeatherDisplay:10.37,2013-09-04 07:55:00,
2013-09-04 10:00:00,75.8,71.7,30.25,ENE,60,3.5,3.5,87,0.00,CLR,,0.00,WeatherDisplay:10.37,2013-09-04 08:00:00,
2013-09-04 10:05:00,75.9,72.1,30.25,ENE,59,2.0,2.0,88,0.00,CLR,,0.00,WeatherDisplay:10.37,2013-09-04 08:05:00,
2013-09-04 10:10:00,76.2,72.0,30.25,NE,46,7.0,7.0,87,0.00,CLR,,0.00,WeatherDisplay:10.37,2013-09-04 08:10:00,
2013-09-04 10:15:00,76.0,71.8,30.25,North,5,3.5,3.5,87,0.00,CLR,,0.00,WeatherDisplay:10.37,2013-09-04 08:15:00,
2013-09-04 10:20:00,76.2,72.0,30.25,NNE,22,5.0,5.0,87,0.00,CLR,,0.00,WeatherDisplay:10.37,2013-09-04 08:20:00,
2013-09-04 10:25:00,76.3,71.8,30.25,NE,50,4.6,4.6,86,0.00,CLR,,0.00,WeatherDisplay:10.37,2013-09-04 08:25:00,
2013-09-04 10:30:00,76.6,72.1,30.25,NNE,28,3.5,3.5,86,0.00,CLR,,0.00,WeatherDisplay:10.37,2013-09-04 08:30:00,
2013-09-04 10:35:00,76.8,71.9,30.25,NNE,20,3.5,3.5,85,0.00,CLR,,0.00,WeatherDisplay:10.37,2013-09-04 08:35:00,
2013-09-04 10:40:00,76.9,72.0,30.25,ENE,78,4.0,4.0,85,0.00,CLR,,0.00,WeatherDisplay:10.37,2013-09-04 08:40:00,
2013-09-04 10:45:00,77.2,71.6,30.25,NE,40,4.6,4.6,83,0.00,CLR,,0.00,WeatherDisplay:10.37,2013-09-04 08:45:00,
2013-09-04 10:50:00,77.5,72.3,30.25,NNE,23,3.5,3.5,84,0.00,CLR,,0.00,WeatherDisplay:10.37,2013-09-04 08:50:00,
2013-09-04 10:55:00,78.0,72.1,30.25,ENE,65,3.5,3.5,82,0.00,CLR,,0.00,WeatherDisplay:10.37,2013-09-04 08:55:00,
2013-09-04 11:00:00,78.6,72.3,30.25,ENE,61,3.5,3.5,81,0.00,CLR,,0.00,WeatherDisplay:10.37,2013-09-04 09:00:00,
2013-09-04 11:05:00,78.9,72.2,30.25,East,94,3.5,3.5,80,0.00,CLR,,0.00,WeatherDisplay:10.37,2013-09-04 09:05:00,
2013-09-04 11:10:00,79.3,72.2,30.25,SE,137,3.5,3.5,79,0.00,CLR,,0.00,WeatherDisplay:10.37,2013-09-04 09:10:00,
2013-09-04 11:15:00,79.6,71.4,30.25,SSE,161,5.8,5.8,76,0.00,CLR,,0.00,WeatherDisplay:10.37,2013-09-04 09:15:00,
2013-09-04 11:20:00,79.8,71.6,30.25,SE,134,6.0,6.0,76,0.00,CLR,,0.00,WeatherDisplay:10.37,2013-09-04 09:20:00,
2013-09-04 11:25:00,79.4,71.2,30.25,SSE,161,6.9,6.9,76,0.00,CLR,,0.00,WeatherDisplay:10.37,2013-09-04 09:25:00,
2013-09-04 11:30:00,79.5,71.3,30.25,NE,36,3.5,3.5,76,0.00,CLR,,0.00,WeatherDisplay:10.37,2013-09-04 09:30:00,
2013-09-04 11:35:00,79.8,71.2,30.25,ESE,123,5.0,5.0,75,0.00,CLR,,0.00,WeatherDisplay:10.37,2013-09-04 09:35:00,
2013-09-04 11:40:00,79.9,71.3,30.25,ENE,65,4.6,4.6,75,0.00,CLR,,0.00,WeatherDisplay:10.37,2013-09-04 09:40:00,
2013-09-04 11:45:00,80.3,71.3,30.25,East,79,4.6,4.6,74,0.00,CLR,,0.00,WeatherDisplay:10.37,2013-09-04 09:45:00,
2013-09-04 11:50:00,80.5,71.0,30.25,North,360,3.5,3.5,73,0.00,CLR,,0.00,WeatherDisplay:10.37,2013-09-04 09:50:00,
2013-09-04 11:55:00,81.1,71.6,30.25,East,87,6.9,6.9,73,0.00,CLR,,0.00,WeatherDisplay:10.37,2013-09-04 09:55:00,
2013-09-04 12:00:00,81.2,71.3,30.25,East,97,7.0,7.0,72,0.00,CLR,,0.00,WeatherDisplay:10.37,2013-09-04 10:00:00,
2013-09-04 12:05:00,80.9,71.0,30.24,ENE,57,9.2,9.2,72,0.00,CLR,,0.00,WeatherDisplay:10.37,2013-09-04 10:05:00,
2013-09-04 12:10:00,80.2,70.8,30.24,North,5,3.5,3.5,73,0.00,CLR,,0.00,WeatherDisplay:10.37,2013-09-04 10:10:00,
2013-09-04 12:15:00,79.8,70.8,30.24,NNE,30,3.5,3.5,74,0.00,CLR,,0.00,WeatherDisplay:10.37,2013-09-04 10:15:00,
2013-09-04 12:20:00,79.9,70.1,30.24,NNE,30,3.5,3.5,72,0.00,CLR,,0.00,WeatherDisplay:10.37,2013-09-04 10:20:00,
2013-09-04 12:25:00,80.3,70.4,30.24,NNW,345,4.6,4.6,72,0.00,CLR,,0.00,WeatherDisplay:10.37,2013-09-04 10:25:00,
2013-09-04 12:30:00,80.6,63.5,30.20,SSE,159,2.0,3.0,56,0.00,,,0.00,Wunderground v.1.15,2013-09-04 10:30:00,
2013-09-04 12:35:00,80.9,63.2,30.19,SSE,156,3.0,3.0,55,0.00,,,0.00,Wunderground v.1.15,2013-09-04 10:35:00,
2013-09-04 12:40:00,81.2,70.5,30.23,East,99,4.6,4.6,70,0.00,CLR,,0.00,WeatherDisplay:10.37,2013-09-04 10:40:00,
2013-09-04 12:45:00,81.9,63.6,30.19,ENE,74,3.0,3.0,54,0.00,,,0.00,Wunderground v.1.15,2013-09-04 10:45:00,
2013-09-04 12:50:00,82.1,63.8,30.19,ESE,119,3.0,3.0,54,0.00,,,0.00,Wunderground v.1.15,2013-09-04 10:50:00,
2013-09-04 12:55:00,81.9,69.9,30.22,North,5,6.9,6.9,67,0.00,CLR,,0.00,WeatherDisplay:10.37,2013-09-04 10:55:00,
2013-09-04 13:00:00,81.8,69.8,30.23,SE,125,6.9,6.9,67,0.00,CLR,,0.00,WeatherDisplay:10.37,2013-09-04 11:00:00,
2013-09-04 13:05:00,82.5,70.0,30.22,SE,146,5.8,5.8,66,0.00,CLR,,0.00,WeatherDisplay:10.37,2013-09-04 11:05:00,
2013-09-04 13:10:00,82.9,71.7,30.22,SSE,165,9.2,9.2,69,0.00,CLR,,0.00,WeatherDisplay:10.37,2013-09-04 11:10:00,
2013-09-04 13:15:00,82.7,71.9,30.22,SSE,157,10.4,10.4,70,0.00,CLR,,0.00,WeatherDisplay:10.37,2013-09-04 11:15:00,
2013-09-04 13:20:00,82.9,71.3,30.22,SSW,196,9.2,9.2,68,0.00,CLR,,0.00,WeatherDisplay:10.37,2013-09-04 11:20:00,
2013-09-04 13:25:00,82.8,71.2,30.22,SSW,202,10.4,10.4,68,0.00,CLR,,0.00,WeatherDisplay:10.37,2013-09-04 11:25:00,
2013-09-04 13:30:00,82.7,73.2,30.22,SSE,164,11.5,11.5,73,0.00,CLR,,0.00,WeatherDisplay:10.37,2013-09-04 11:30:00,
2013-09-04 13:35:00,81.8,73.1,30.22,South,182,11.5,11.5,75,0.00,CLR,,0.00,WeatherDisplay:10.37,2013-09-04 11:35:00,
2013-09-04 13:40:00,81.7,73.8,30.22,SSE,148,17.3,17.3,77,0.00,CLR,,0.00,WeatherDisplay:10.37,2013-09-04 11:40:00,
2013-09-04 13:45:00,81.5,73.6,30.22,SW,216,10.0,10.0,77,0.00,CLR,,0.00,WeatherDisplay:10.37,2013-09-04 11:45:00,
2013-09-04 13:50:00,80.8,72.9,30.21,SW,221,9.2,9.2,77,0.00,CLR,,0.00,WeatherDisplay:10.37,2013-09-04 11:50:00,
2013-09-04 13:55:00,80.8,73.3,30.21,SSW,205,8.1,8.1,78,0.00,CLR,,0.00,WeatherDisplay:10.37,2013-09-04 11:55:00,
2013-09-04 14:00:00,80.4,73.3,30.21,SSW,212,13.8,13.8,79,0.00,CLR,,0.00,WeatherDisplay:10.37,2013-09-04 12:00:00,
2013-09-04 14:05:00,80.3,72.8,30.21,SSW,199,10.4,10.4,78,0.00,CLR,,0.00,WeatherDisplay:10.37,2013-09-04 12:05:00,
2013-09-04 14:10:00,80.4,73.3,30.21,South,176,11.5,11.5,79,0.00,CLR,,0.00,WeatherDisplay:10.37,2013-09-04 12:10:00,
2013-09-04 14:15:00,80.4,73.3,30.21,SSW,212,10.4,10.4,79,0.00,CLR,,0.00,WeatherDisplay:10.37,2013-09-04 12:15:00,
2013-09-04 14:20:00,80.7,67.4,30.17,South,178,7.0,8.0,64,0.00,,,0.00,Wunderground v.1.15,2013-09-04 12:20:00,
2013-09-04 14:25:00,81.2,74.1,30.21,SSW,194,10.4,10.4,79,0.00,CLR,,0.00,WeatherDisplay:10.37,2013-09-04 12:25:00,
2013-09-04 14:30:00,81.3,74.2,30.21,SSW,199,9.2,9.2,79,0.00,CLR,,0.00,WeatherDisplay:10.37,2013-09-04 12:30:00,
2013-09-04 14:35:00,80.9,73.8,30.21,SSW,196,11.0,11.0,79,0.00,CLR,,0.00,WeatherDisplay:10.37,2013-09-04 12:35:00,
2013-09-04 14:40:00,80.9,73.4,30.20,SSW,205,9.2,9.2,78,0.00,CLR,,0.00,WeatherDisplay:10.37,2013-09-04 12:40:00,
2013-09-04 14:45:00,81.1,74.0,30.20,SW,215,8.1,8.1,79,0.00,CLR,,0.00,WeatherDisplay:10.37,2013-09-04 12:45:00,
2013-09-04 14:50:00,81.1,74.0,30.20,SSE,148,10.4,10.4,79,0.00,CLR,,0.00,WeatherDisplay:10.37,2013-09-04 12:50:00,
2013-09-04 14:55:00,81.6,67.8,30.16,South,191,6.0,10.0,63,0.00,,,0.00,Wunderground v.1.15,2013-09-04 12:55:00,
2013-09-04 15:00:00,81.8,74.6,30.19,South,182,9.2,9.2,79,0.00,CLR,,0.00,WeatherDisplay:10.37,2013-09-04 13:00:00,
2013-09-04 15:05:00,81.7,74.2,30.19,SW,227,11.5,11.5,78,0.00,CLR,,0.00,WeatherDisplay:10.37,2013-09-04 13:05:00,
2013-09-04 15:10:00,81.7,73.8,30.19,SW,218,10.4,10.4,77,0.00,CLR,,0.00,WeatherDisplay:10.37,2013-09-04 13:10:00,
2013-09-04 15:15:00,82.0,74.1,30.19,SW,225,11.0,11.0,77,0.00,CLR,,0.00,WeatherDisplay:10.37,2013-09-04 13:15:00,
2013-09-04 15:20:00,81.8,74.3,30.19,South,180,10.4,10.4,78,0.00,CLR,,0.00,WeatherDisplay:10.37,2013-09-04 13:20:00,
2013-09-04 15:25:00,81.6,73.7,30.19,South,179,9.2,9.2,77,0.00,CLR,,0.00,WeatherDisplay:10.37,2013-09-04 13:25:00,
2013-09-04 15:30:00,81.4,73.1,30.18,South,177,9.2,9.2,76,0.00,CLR,,0.00,WeatherDisplay:10.37,2013-09-04 13:30:00,
2013-09-04 15:35:00,81.6,72.9,30.18,South,178,8.1,8.1,75,0.00,CLR,,0.00,WeatherDisplay:10.37,2013-09-04 13:35:00,
2013-09-04 15:40:00,81.8,73.1,30.18,SSW,196,9.2,9.2,75,0.00,CLR,,0.00,WeatherDisplay:10.37,2013-09-04 13:40:00,
2013-09-04 15:45:00,81.6,72.9,30.18,SSW,205,9.2,9.2,75,0.00,CLR,,0.00,WeatherDisplay:10.37,2013-09-04 13:45:00,
2013-09-04 15:50:00,81.7,73.0,30.18,SW,223,10.4,10.4,75,0.00,CLR,,0.00,WeatherDisplay:10.37,2013-09-04 13:50:00,
2013-09-04 15:55:00,82.0,72.9,30.17,West,260,10.4,10.4,74,0.00,CLR,,0.00,WeatherDisplay:10.37,2013-09-04 13:55:00,
2013-09-04 16:00:00,81.9,73.2,30.17,SSW,213,10.4,10.4,75,0.00,CLR,,0.00,WeatherDisplay:10.37,2013-09-04 14:00:00,
2013-09-04 16:05:00,81.8,73.1,30.17,SW,217,9.2,9.2,75,0.00,CLR,,0.00,WeatherDisplay:10.37,2013-09-04 14:05:00,
2013-09-04 16:10:00,81.8,73.9,30.17,SSW,194,11.5,11.5,77,0.00,CLR,,0.00,WeatherDisplay:10.37,2013-09-04 14:10:00,
2013-09-04 16:15:00,82.0,73.3,30.17,SW,232,9.2,9.2,75,0.00,CLR,,0.00,WeatherDisplay:10.37,2013-09-04 14:15:00,
2013-09-04 16:20:00,81.9,74.0,30.17,SSW,213,13.0,13.0,77,0.00,CLR,,0.00,WeatherDisplay:10.37,2013-09-04 14:20:00,
2013-09-04 16:25:00,81.6,73.7,30.17,SW,228,9.2,9.2,77,0.00,CLR,,0.00,WeatherDisplay:10.37,2013-09-04 14:25:00,
2013-09-04 16:30:00,81.8,73.9,30.16,WSW,251,8.1,8.1,77,0.00,CLR,,0.00,WeatherDisplay:10.37,2013-09-04 14:30:00,
2013-09-04 16:35:00,81.5,74.0,30.16,South,169,11.5,11.5,78,0.00,CLR,,0.00,WeatherDisplay:10.37,2013-09-04 14:35:00,
2013-09-04 16:40:00,81.6,74.1,30.16,SW,223,8.1,8.1,78,0.00,CLR,,0.00,WeatherDisplay:10.37,2013-09-04 14:40:00,
2013-09-04 16:45:00,82.1,74.2,30.16,SSW,194,10.4,10.4,77,0.00,CLR,,0.00,WeatherDisplay:10.37,2013-09-04 14:45:00,
2013-09-04 16:50:00,82.0,74.1,30.16,South,171,6.9,6.9,77,0.00,CLR,,0.00,WeatherDisplay:10.37,2013-09-04 14:50:00,
2013-09-04 16:55:00,81.7,73.8,30.16,South,175,9.2,9.2,77,0.00,CLR,,0.00,WeatherDisplay:10.37,2013-09-04 14:55:00,
2013-09-04 17:00:00,81.7,74.2,30.16,SW,218,9.2,9.2,78,0.00,CLR,,0.00,WeatherDisplay:10.37,2013-09-04 15:00:00,
2013-09-04 17:05:00,81.6,74.1,30.16,SSW,200,11.5,11.5,78,0.00,CLR,,0.00,WeatherDisplay:10.37,2013-09-04 15:05:00,
2013-09-04 17:10:00,81.5,74.4,30.16,SW,230,11.5,11.5,79,0.00,CLR,,0.00,WeatherDisplay:10.37,2013-09-04 15:10:00,
2013-09-04 17:15:00,81.3,73.8,30.16,SW,232,11.5,11.5,78,0.00,CLR,,0.00,WeatherDisplay:10.37,2013-09-04 15:15:00,
2013-09-04 17:20:00,81.3,74.2,30.16,SSW,203,10.4,10.4,79,0.00,CLR,,0.00,WeatherDisplay:10.37,2013-09-04 15:20:00,
2013-09-04 17:25:00,81.3,74.2,30.16,SSE,150,10.4,10.4,79,0.00,CLR,,0.00,WeatherDisplay:10.37,2013-09-04 15:25:00,
2013-09-04 17:30:00,81.1,74.7,30.16,South,188,6.9,6.9,81,0.00,CLR,,0.00,WeatherDisplay:10.37,2013-09-04 15:30:00,
2013-09-04 17:35:00,81.1,74.3,30.15,South,176,10.4,10.4,80,0.00,CLR,,0.00,WeatherDisplay:10.37,2013-09-04 15:35:00,
2013-09-04 17:40:00,81.3,74.5,30.15,South,179,8.0,8.0,80,0.00,CLR,,0.00,WeatherDisplay:10.37,2013-09-04 15:40:00,
2013-09-04 17:45:00,81.6,74.8,30.15,SSW,201,7.0,7.0,80,0.00,CLR,,0.00,WeatherDisplay:10.37,2013-09-04 15:45:00,
2013-09-04 17:50:00,81.1,68.2,30.11,South,180,6.0,6.0,65,0.00,,,0.00,Wunderground v.1.15,2013-09-04 15:50:00,
2013-09-04 17:55:00,80.9,74.1,30.15,SSW,200,9.2,9.2,80,0.00,CLR,,0.00,WeatherDisplay:10.37,2013-09-04 15:55:00,
2013-09-04 18:00:00,80.6,74.2,30.15,South,190,12.7,12.7,81,0.00,CLR,,0.00,WeatherDisplay:10.37,2013-09-04 16:00:00,
2013-09-04 18:05:00,80.5,73.8,30.15,SW,223,10.4,10.4,80,0.00,CLR,,0.00,WeatherDisplay:10.37,2013-09-04 16:05:00,
2013-09-04 18:10:00,81.0,74.2,30.15,South,178,6.9,6.9,80,0.00,CLR,,0.00,WeatherDisplay:10.37,2013-09-04 16:10:00,
2013-09-04 18:15:00,81.0,74.2,30.15,WSW,248,8.0,8.0,80,0.00,CLR,,0.00,WeatherDisplay:10.37,2013-09-04 16:15:00,
2013-09-04 18:20:00,81.0,73.9,30.15,SSW,210,5.8,5.8,79,0.00,CLR,,0.00,WeatherDisplay:10.37,2013-09-04 16:20:00,
2013-09-04 18:25:00,81.2,74.1,30.14,SSW,192,6.0,6.0,79,0.00,CLR,,0.00,WeatherDisplay:10.37,2013-09-04 16:25:00,
2013-09-04 18:30:00,81.4,73.9,30.14,WSW,237,8.1,8.1,78,0.00,CLR,,0.00,WeatherDisplay:10.37,2013-09-04 16:30:00,
2013-09-04 18:35:00,81.8,73.9,30.14,WSW,241,3.5,3.5,77,0.00,CLR,,0.00,WeatherDisplay:10.37,2013-09-04 16:35:00,
2013-09-04 18:40:00,82.0,73.3,30.14,North,11,7.0,7.0,75,0.00,CLR,,0.00,WeatherDisplay:10.37,2013-09-04 16:40:00,
2013-09-04 18:45:00,81.9,73.2,30.14,East,80,5.8,5.8,75,0.00,CLR,,0.00,WeatherDisplay:10.37,2013-09-04 16:45:00,
2013-09-04 18:50:00,81.5,73.2,30.14,ENE,70,5.8,5.8,76,0.00,CLR,,0.00,WeatherDisplay:10.37,2013-09-04 16:50:00,
2013-09-04 18:55:00,80.7,72.4,30.14,East,84,10.4,10.4,76,0.00,CLR,,0.00,WeatherDisplay:10.37,2013-09-04 16:55:00,
2013-09-04 19:00:00,80.3,71.6,30.14,NE,36,9.2,9.2,75,0.00,CLR,,0.00,WeatherDisplay:10.37,2013-09-04 17:00:00,
2013-09-04 19:05:00,80.1,71.5,30.14,ENE,61,5.8,5.8,75,0.00,CLR,,0.00,WeatherDisplay:10.37,2013-09-04 17:05:00,
2013-09-04 19:10:00,79.8,71.6,30.14,ENE,57,7.0,7.0,76,0.00,CLR,,0.00,WeatherDisplay:10.37,2013-09-04 17:10:00,
2013-09-04 19:15:00,79.5,71.3,30.14,ENE,60,11.5,11.5,76,0.00,CLR,,0.00,WeatherDisplay:10.37,2013-09-04 17:15:00,
2013-09-04 19:20:00,79.4,71.2,30.14,NE,42,10.4,10.4,76,0.00,CLR,,0.00,WeatherDisplay:10.37,2013-09-04 17:20:00,
2013-09-04 19:25:00,79.3,71.5,30.14,ENE,59,11.5,11.5,77,0.00,CLR,,0.00,WeatherDisplay:10.37,2013-09-04 17:25:00,
2013-09-04 19:30:00,79.2,71.4,30.14,NE,40,8.1,8.1,77,0.00,CLR,,0.00,WeatherDisplay:10.37,2013-09-04 17:30:00,
2013-09-04 19:35:00,79.1,71.6,30.14,NE,43,8.0,8.0,78,0.00,CLR,,0.00,WeatherDisplay:10.37,2013-09-04 17:35:00,
2013-09-04 19:40:00,78.9,71.8,30.14,NE,42,9.2,9.2,79,0.00,CLR,,0.00,WeatherDisplay:10.37,2013-09-04 17:40:00,
2013-09-04 19:45:00,78.6,72.3,30.14,NE,55,10.4,10.4,81,0.00,CLR,,0.00,WeatherDisplay:10.37,2013-09-04 17:45:00,
2013-09-04 19:50:00,78.3,72.3,30.14,ENE,69,11.5,11.5,82,0.00,CLR,,0.00,WeatherDisplay:10.37,2013-09-04 17:50:00,
2013-09-04 19:55:00,78.1,72.5,30.14,NNE,30,12.7,12.7,83,0.00,CLR,,0.00,WeatherDisplay:10.37,2013-09-04 17:55:00,
2013-09-04 20:00:00,77.8,72.6,30.14,NE,55,12.7,12.7,84,0.00,CLR,,0.00,WeatherDisplay:10.37,2013-09-04 18:00:00,
2013-09-04 20:05:00,77.6,72.7,30.14,ENE,58,11.5,11.5,85,0.00,CLR,,0.00,WeatherDisplay:10.37,2013-09-04 18:05:00,
2013-09-04 20:10:00,77.3,72.4,30.14,ENE,65,10.4,10.4,85,0.00,CLR,,0.00,WeatherDisplay:10.37,2013-09-04 18:10:00,
2013-09-04 20:15:00,77.0,72.5,30.14,NE,44,9.0,9.0,86,0.00,CLR,,0.00,WeatherDisplay:10.37,2013-09-04 18:15:00,
2013-09-04 20:20:00,76.8,72.6,30.14,NE,51,6.0,6.0,87,0.00,CLR,,0.00,WeatherDisplay:10.37,2013-09-04 18:20:00,
2013-09-04 20:25:00,76.6,72.8,30.15,ENE,69,11.5,11.5,88,0.00,CLR,,0.00,WeatherDisplay:10.37,2013-09-04 18:25:00,
2013-09-04 20:30:00,76.4,72.9,30.15,ENE,78,9.2,9.2,89,0.00,CLR,,0.00,WeatherDisplay:10.37,2013-09-04 18:30:00,
2013-09-04 20:35:00,76.1,72.6,30.15,East,92,10.4,10.4,89,0.00,CLR,,0.00,WeatherDisplay:10.37,2013-09-04 18:35:00,
2013-09-04 20:40:00,75.9,72.8,30.15,NNE,24,11.5,11.5,90,0.00,CLR,,0.00,WeatherDisplay:10.37,2013-09-04 18:40:00,
2013-09-04 20:45:00,75.8,73.0,30.15,NE,41,11.5,11.5,91,0.00,CLR,,0.00,WeatherDisplay:10.37,2013-09-04 18:45:00,
2013-09-04 20:50:00,75.6,72.8,30.15,NE,53,10.4,10.4,91,0.00,CLR,,0.00,WeatherDisplay:10.37,2013-09-04 18:50:00,
2013-09-04 20:55:00,75.5,73.0,30.15,ENE,63,11.5,11.5,92,0.00,CLR,,0.00,WeatherDisplay:10.37,2013-09-04 18:55:00,
2013-09-04 21:00:00,75.4,72.9,30.15,ENE,64,6.9,6.9,92,0.00,CLR,,0.00,WeatherDisplay:10.37,2013-09-04 19:00:00,
2013-09-04 21:05:00,75.3,72.8,30.15,NE,34,11.5,11.5,92,0.00,CLR,,0.00,WeatherDisplay:10.37,2013-09-04 19:05:00,
2013-09-04 21:10:00,75.2,72.7,30.15,NE,41,6.9,6.9,92,0.00,CLR,,0.00,WeatherDisplay:10.37,2013-09-04 19:10:00,
2013-09-04 21:15:00,75.1,67.4,30.11,North,5,6.0,7.0,77,0.00,,,0.00,Wunderground v.1.15,2013-09-04 19:15:00,
2013-09-04 21:20:00,75.0,67.3,30.11,ENE,71,6.0,6.0,77,0.00,,,0.00,Wunderground v.1.15,2013-09-04 19:20:00,
2013-09-04 21:25:00,74.9,72.4,30.15,NE,56,9.2,9.2,92,0.00,CLR,,0.00,WeatherDisplay:10.37,2013-09-04 19:25:00,
2013-09-04 21:30:00,74.8,72.3,30.16,ENE,68,11.5,11.5,92,0.00,CLR,,0.00,WeatherDisplay:10.37,2013-09-04 19:30:00,
2013-09-04 21:35:00,74.8,67.5,30.16,NE,46,6.9,6.9,78,0.00,CLR,,0.00,WeatherDisplay:10.37,2013-09-04 19:35:00,
2013-09-04 21:40:00,74.7,67.4,30.16,NE,43,10.4,10.4,78,0.00,CLR,,0.00,WeatherDisplay:10.37,2013-09-04 19:40:00,
2013-09-04 21:45:00,74.6,67.3,30.16,NE,41,11.5,11.5,78,0.00,CLR,,0.00,WeatherDisplay:10.37,2013-09-04 19:45:00,
2013-09-04 21:50:00,74.6,67.3,30.16,ENE,58,10.4,10.4,78,0.00,CLR,,0.00,WeatherDisplay:10.37,2013-09-04 19:50:00,
2013-09-04 21:55:00,74.5,67.2,30.16,NE,34,7.0,7.0,78,0.00,CLR,,0.00,WeatherDisplay:10.37,2013-09-04 19:55:00,
2013-09-04 22:00:00,74.4,67.1,30.16,NNE,32,4.6,4.6,78,0.00,CLR,,0.00,WeatherDisplay:10.37,2013-09-04 20:00:00,
2013-09-04 22:05:00,74.4,67.1,30.15,NE,42,6.9,6.9,78,0.00,CLR,,0.00,WeatherDisplay:10.37,2013-09-04 20:05:00,
2013-09-04 22:10:00,74.3,67.0,30.16,NE,41,4.6,4.6,78,0.00,CLR,,0.00,WeatherDisplay:10.37,2013-09-04 20:10:00,
2013-09-04 22:15:00,74.2,66.9,30.16,ENE,66,4.6,4.6,78,0.00,CLR,,0.00,WeatherDisplay:10.37,2013-09-04 20:15:00,
2013-09-04 22:20:00,74.0,67.1,30.16,NE,55,3.5,3.5,79,0.00,CLR,,0.00,WeatherDisplay:10.37,2013-09-04 20:20:00,
2013-09-04 22:25:00,73.9,67.0,30.16,ENE,65,3.5,3.5,79,0.00,CLR,,0.00,WeatherDisplay:10.37,2013-09-04 20:25:00,
2013-09-04 22:30:00,73.9,67.0,30.16,NE,40,4.6,4.6,79,0.00,CLR,,0.00,WeatherDisplay:10.37,2013-09-04 20:30:00,
2013-09-04 22:35:00,73.8,66.9,30.16,NE,42,2.3,2.3,79,0.00,CLR,,0.00,WeatherDisplay:10.37,2013-09-04 20:35:00,
2013-09-04 22:40:00,73.7,66.8,30.16,ENE,59,3.5,3.5,79,0.00,CLR,,0.00,WeatherDisplay:10.37,2013-09-04 20:40:00,
2013-09-04 22:45:00,73.6,67.0,30.16,NE,52,3.5,3.5,80,0.00,CLR,,0.00,WeatherDisplay:10.37,2013-09-04 20:45:00,
2013-09-04 22:50:00,73.5,66.6,30.16,NNE,32,4.6,4.6,79,0.00,CLR,,0.00,WeatherDisplay:10.37,2013-09-04 20:50:00,
2013-09-04 22:55:00,73.5,66.9,30.16,NNE,30,3.5,3.5,80,0.00,CLR,,0.00,WeatherDisplay:10.37,2013-09-04 20:55:00,
2013-09-04 23:00:00,73.5,66.9,30.15,NE,40,3.5,3.5,80,0.00,CLR,,0.00,WeatherDisplay:10.37,2013-09-04 21:00:00,
2013-09-04 23:05:00,73.4,66.9,30.15,NNE,28,3.5,3.5,80,0.00,CLR,,0.00,WeatherDisplay:10.37,2013-09-04 21:05:00,
2013-09-04 23:10:00,73.2,66.7,30.15,NNE,22,4.6,4.6,80,0.00,CLR,,0.00,WeatherDisplay:10.37,2013-09-04 21:10:00,
2013-09-04 23:15:00,73.1,66.6,30.16,NNE,15,3.5,3.5,80,0.00,CLR,,0.00,WeatherDisplay:10.37,2013-09-04 21:15:00,
2013-09-04 23:20:00,73.0,66.5,30.15,NNE,24,4.0,4.0,80,0.00,CLR,,0.00,WeatherDisplay:10.37,2013-09-04 21:20:00,
2013-09-04 23:25:00,73.0,66.5,30.15,NNE,28,3.5,3.5,80,0.00,CLR,,0.00,WeatherDisplay:10.37,2013-09-04 21:25:00,
2013-09-04 23:30:00,72.9,66.4,30.15,NE,45,3.5,3.5,80,0.00,CLR,,0.00,WeatherDisplay:10.37,2013-09-04 21:30:00,
2013-09-04 23:35:00,72.9,66.4,30.15,NE,34,3.5,3.5,80,0.00,CLR,,0.00,WeatherDisplay:10.37,2013-09-04 21:35:00,
2013-09-04 23:40:00,72.9,66.4,30.15,NE,44,3.5,3.5,80,0.00,CLR,,0.00,WeatherDisplay:10.37,2013-09-04 21:40:00,
2013-09-04 23:45:00,73.0,66.5,30.15,NE,39,5.8,5.8,80,0.00,CLR,,0.00,WeatherDisplay:10.37,2013-09-04 21:45:00,
2013-09-04 23:50:00,73.1,66.6,30.15,NE,36,4.6,4.6,80,0.00,CLR,,0.00,WeatherDisplay:10.37,2013-09-04 21:50:00,
2013-09-04 23:55:00,73.1,66.6,30.15,NNE,30,4.0,4.0,80,0.00,CLR,,0.00,WeatherDisplay:10.37,2013-09-04 21:55:00,